OPS 4682 DEB, 38445

Orbit data source: Space-Track

OPS 4682 DEB, 38445 is space debris in LEO originally from a launch on Sat, 03 Apr 1965 UTC launched from the Air Force Western Test Range (AFWTR). Debris objects in space refer to the collection of defunct objects orbiting the Earth. Examples of debris include non-operational satellites, rocket bodies, and fragments generated from explosions, collisions, or faulty payload assembly.

Loading next visibility...
Identifier
38445, 1965-027FA
Orbit
LEO
Country
Flag of USUS
Related business
Manufacturer
Unknown
Mission
Spacecraft
Bus & Motor
Unknown
Mass
Unknown
Launch date (UTC)
1965-04-03 (61 years ago)
Launch vehicle
Unknown
Launch site
Air Force Western Test Range (AFWTR)
Object type
Payload
Rocket body
Debris
Shape & HBR
Unknown shape, 0.1 m
Radar Cross Section
Small (<0.1 m²)

Expand to show TLE details & history
Last TLE update: 3 days ago

TLE from 3 days ago
0 OPS 4682 DEB
1 38445U 65027FA  26116.41469214 -.00000060  00000-0 -23761-3 0  9991
2 38445  90.2436   5.4775 0031023 341.1829  18.8141 12.95389045597320
Epoch: 2026-04-26T09:57Z
TLE epoch observation values (Epoch: 2026-04-26T09:57:09.400Z)
Latitude
-0.00009°
Longitude
1.76929°
Altitude
1,260.597 km
Speed
7.236 km/s
True Right ascension
00h 21m 54s
True Declination
0° 00' 00"
Sunlit
Object was in daylight at epoch
Visualization orbit readout
Latitude
Unknown
Longitude
Unknown
Altitude
Unknown
Speed
Unknown
Apparent Right ascension
Unknown
Apparent Declination
Unknown
Sunlit
N/A
Visualization observer readout
Local Sidereal Time
00:35:08
Azimuth
Unknown
Elevation
Unknown
Doppler factor
Unknown
Orbital elements
Apogee altitude
1,301.09 km
Perigee altitude
1,253.59 km
Semi-major axis
7,655.477 km
Eccentricity
0.0031
Inclination
90.2436°
RAAN
5.4775°
Arg. of periapsis
341.1829°
True anomaly
18.92917°
Mean anomaly
18.8141°
Eccentric anomaly
18.87159°
Mean motion
3.2403 °/min
Orbital period
111.1 mins
BSTAR
-0.00023761
Loading maneuver chart data...
Computing Atmospheric mass density...
Loading historical data...
Loading historical data...
Loading historical data...
Loading historical data...
Loading historical data...
Loading historical data...
Loading historical data...

Documentation

Showing up to 5 results
|